GW0991 Weather Reports


time (UTC)temp
C
wind
direction
speed
KPH
gust
KPH
rain 1hr
cm
rain 24hr
cm
rain mn
cm
humidity
%
barometer
mb
20260906123010 21 300 6.4 9.7 0.00 0.00 0.00 95 1019.8
20260906122503 21 62 3.2 4.8 0.00 0.00 0.00 96 1019.6
20260906122000 21 78 1.6 8.0 0.00 0.00 0.00 96 1019.7
20260906121456 21 181 1.6 3.2 0.00 0.00 0.00 96 1019.9
20260906120952 21 72 3.2 3.2 0.00 0.00 0.00 96 1019.5
20260906120447 21 44 4.8 8.0 0.00 0.00 0.00 96 1019.2
20260906115943 21 85 1.6 3.2 0.00 0.00 0.00 96 1019.1
20260906115439 21 164 0.0 3.2 0.00 0.00 0.00 96 1019.3
20260906114938 21 37 4.8 9.7 0.00 0.00 0.00 96 1019.0
20260906114433 21 131 3.2 4.8 0.00 0.00 0.00 96 1019.1
20260906113929 21 354 3.2 8.0 0.00 0.00 0.00 95 1019.0
20260906113427 21 13 6.4 8.0 0.00 0.00 0.00 95 1018.9
20260906112923 21 95 4.8 4.8 0.00 0.00 0.00 95 1018.8
20260906112418 21 141 1.6 8.0 0.00 0.00 0.00 95 1018.8
20260906111914 21 101 4.8 8.0 0.00 0.00 0.00 95 1018.7
20260906111413 21 196 3.2 9.7 0.00 0.00 0.00 95 1018.7
20260906110908 21 121 0.0 4.8 0.00 0.00 0.00 95 1018.4
20260906110403 21 198 4.8 9.7 0.00 0.00 0.00 95 1018.7
20260906105903 21 222 3.2 9.7 0.00 0.00 0.00 95 1018.4
20260906105359 21 164 3.2 3.2 0.00 0.00 0.00 95 1018.3
20260906104854 21 357 3.2 4.8 0.00 0.00 0.00 95 1018.4
20260906104353 21 171 1.6 11.3 0.00 0.00 0.00 95 1018.3
20260906103852 21 131 1.6 8.0 0.00 0.00 0.00 95 1018.2
20260906103350 22 148 4.8 11.3 0.00 0.00 0.00 95 1018.5
20260906102846 22 73 3.2 8.0 0.00 0.00 0.00 95 1018.2
20260906102345 22 121 3.2 3.2 0.00 0.00 0.00 96 1018.2
20260906101840 22 120 3.2 11.3 0.00 0.00 0.00 96 1017.8
20260906101335 22 56 8.0 9.7 0.00 0.00 0.00 96 1018.2
20260906100831 22 191 1.6 8.0 0.00 0.00 0.00 96 1018.1
20260906100330 22 359 4.8 8.0 0.00 0.00 0.00 96 1018.0
20260906095825 22 24 3.2 11.3 0.00 0.00 0.00 96 1018.1
20260906095321 22 339 8.0 9.7 0.00 0.00 0.00 96 1018.1
20260906094820 22 191 1.6 11.3 0.00 0.00 0.00 96 1017.9
20260906094315 22 209 1.6 8.0 0.00 0.00 0.00 96 1017.9
20260906093812 22 148 0.0 3.2 0.00 0.00 0.00 96 1018.1
20260906093307 22 191 1.6 3.2 0.00 0.00 0.00 96 1017.8
20260906092801 22 53 4.8 9.7 0.00 0.00 0.00 95 1017.9
20260906092256 22 198 1.6 1.6 0.00 0.00 0.00 95 1017.9
20260906091752 22 3 1.6 3.2 0.00 0.00 0.00 95 1017.8
20260906091248 22 81 3.2 8.0 0.00 0.00 0.00 95 1017.9
20260906090744 22 150 1.6 4.8 0.00 0.00 0.00 95 1018.0
20260906090243 22 33 6.4 9.7 0.00 0.00 0.00 95 1017.9
20260906085742 22 117 4.8 4.8 0.00 0.00 0.00 95 1017.9
20260906085242 22 52 1.6 8.0 0.00 0.00 0.00 95 1018.0
20260906084736 22 65 4.8 8.0 0.00 0.00 0.00 95 1018.0
20260906084231 22 48 3.2 9.7 0.00 0.00 0.00 95 1017.9
20260906083726 22 104 3.2 8.0 0.00 0.00 0.00 95 1018.1
20260906083221 22 163 6.4 9.7 0.00 0.00 0.00 94 1018.0
20260906082716 22 202 3.2 4.8 0.00 0.00 0.00 94 1017.9
20260906082211 22 204 4.8 11.3 0.00 0.00 0.00 94 1018.0
20260906081707 22 69 4.8 8.0 0.00 0.00 0.00 94 1017.8
20260906081202 22 157 1.6 8.0 0.00 0.00 0.00 94 1018.2
20260906080659 22 349 6.4 9.7 0.00 0.00 0.00 94 1018.3
20260906080154 22 109 1.6 4.8 0.00 0.00 0.00 94 1018.2
20260906075654 22 198 1.6 3.2 0.00 0.00 0.00 94 1018.1
20260906075149 22 28 3.2 11.3 0.00 0.00 0.00 94 1018.1
20260906074644 22 19 1.6 3.2 0.00 0.00 0.00 94 1018.1
20260906074143 22 59 4.8 4.8 0.00 0.00 0.00 94 1018.2
20260906073638 22 268 0.0 4.8 0.00 0.00 0.00 93 1018.2
20260906073134 22 33 3.2 4.8 0.00 0.00 0.00 93 1018.0
20260906072628 22 211 1.6 4.8 0.00 0.00 0.00 93 1017.9
20260906072124 22 17 8.0 11.3 0.00 0.00 0.00 93 1017.9
20260906071621 21 77 3.2 8.0 0.00 0.00 0.00 93 1018.1
20260906071115 21 169 1.6 9.7 0.00 0.00 0.00 93 1018.0
20260906070612 21 55 4.8 14.5 0.00 0.00 0.00 93 1018.0
20260906070107 21 69 3.2 8.0 0.00 0.00 0.00 93 1018.2
20260906065606 21 37 3.2 8.0 0.00 0.00 0.00 93 1018.3
20260906065102 21 51 4.8 9.7 0.00 0.00 0.00 93 1018.1
20260906064558 21 82 9.7 11.3 0.00 0.00 0.00 93 1018.4
20260906064052 21 181 3.2 8.0 0.00 0.00 0.00 92 1018.1
20260906063547 21 83 3.2 8.0 0.00 0.00 0.00 93 1018.3
20260906063043 21 173 1.6 1.6 0.00 0.00 0.00 93 1018.4
20260906062539 21 75 1.6 4.8 0.00 0.00 0.00 93 1018.3
20260906062032 21 48 6.4 8.0 0.00 0.00 0.00 93 1018.2
20260906061529 21 80 4.8 8.0 0.00 0.00 0.00 93 1018.3
20260906061028 21 126 3.2 4.8 0.00 0.00 0.00 93 1018.5
20260906060525 21 105 4.8 8.0 0.00 0.00 0.00 93 1018.4
20260906060022 21 56 4.8 8.0 0.00 0.00 0.00 93 1018.5
20260906055517 21 127 3.2 4.8 0.00 0.00 0.00 93 1018.4
20260906055013 21 39 4.8 4.8 0.00 0.00 0.00 93 1018.5
20260906054507 21 217 0.0 4.8 0.00 0.00 0.00 93 1018.4
20260906054002 21 210 4.8 9.7 0.00 0.00 0.00 93 1018.2
20260906053459 21 187 1.6 4.8 0.00 0.00 0.00 93 1018.5
20260906052954 21 45 3.2 12.9 0.00 0.00 0.00 93 1018.2
20260906052450 21 23 3.2 8.0 0.00 0.00 0.00 92 1018.4
20260906051947 21 354 4.8 9.7 0.00 0.00 0.00 93 1018.2
20260906051442 21 80 3.2 8.0 0.00 0.00 0.00 93 1018.2
20260906050937 21 349 4.8 14.5 0.00 0.00 0.00 93 1018.2
20260906050437 21 21 3.2 16.1 0.00 0.00 0.00 92 1018.1
20260906045936 21 21 9.7 12.9 0.00 0.00 0.00 93 1017.9
20260906045435 21 133 4.8 8.0 0.00 0.00 0.00 93 1017.9
20260906044931 21 219 4.8 9.7 0.00 0.00 0.00 94 1017.8
20260906044426 21 176 9.7 12.9 0.00 0.00 0.00 94 1017.8
20260906043921 21 45 6.4 11.3 0.00 0.00 0.00 94 1017.6
20260906043417 21 155 4.8 9.7 0.00 0.00 0.00 94 1017.5
20260906042913 21 82 0.0 9.7 0.00 0.00 0.00 95 1017.4
20260906042412 21 77 3.2 9.7 0.00 0.00 0.00 95 1017.5
20260906041907 21 64 3.2 11.3 0.00 0.00 0.00 94 1017.5
20260906041403 22 31 3.2 8.0 0.00 0.00 0.00 94 1017.6
20260906040857 22 122 0.0 3.2 0.00 0.00 0.00 94 1017.6
20260906040352 22 76 3.2 8.0 0.00 0.00 0.00 94 1017.4
20260906035847 22 162 0.0 8.0 0.00 0.00 0.00 94 1017.5
20260906035343 22 46 4.8 4.8 0.00 0.00 0.00 94 1017.5
20260906034838 22 169 1.6 3.2 0.00 0.00 0.00 94 1017.2
20260906034333 22 131 1.6 3.2 0.00 0.00 0.00 93 1017.2
20260906033829 22 97 1.6 4.8 0.00 0.00 0.00 93 1017.4
20260906033328 22 191 1.6 4.8 0.00 0.00 0.00 92 1017.3
20260906032824 23 175 0.0 1.6 0.00 0.00 0.00 92 1017.3
20260906032320 23 37 1.6 4.8 0.00 0.00 0.00 92 1017.3
20260906031815 23 16 1.6 4.8 0.00 0.00 0.00 92 1017.4
20260906031311 23 216 0.0 1.6 0.00 0.00 0.00 91 1017.1
20260906030810 23 42 6.4 9.7 0.00 0.00 0.00 91 1017.2
20260906030306 23 36 3.2 3.2 0.00 0.00 0.00 91 1016.9
20260906025805 23 180 0.0 8.0 0.00 0.00 0.00 91 1017.3
20260906025259 23 28 1.6 8.0 0.00 0.00 0.00 91 1017.2
20260906024758 23 21 6.4 9.7 0.00 0.00 0.00 91 1017.1
20260906024257 23 62 4.8 8.0 0.00 0.00 0.00 90 1017.2
20260906023753 23 104 1.6 3.2 0.00 0.00 0.00 90 1017.1
20260906023248 23 40 6.4 11.3 0.00 0.00 0.00 90 1017.0
20260906022744 24 13 4.8 11.3 0.00 0.00 0.00 90 1017.1
20260906022239 24 59 1.6 4.8 0.00 0.00 0.00 90 1016.7
20260906021736 24 44 3.2 8.0 0.00 0.00 0.00 89 1016.9
20260906021234 25 53 4.8 11.3 0.00 0.00 0.00 89 1016.7
20260906020729 25 73 4.8 11.3 0.00 0.00 0.00 89 1016.9
20260906020223 25 23 4.8 8.0 0.00 0.00 0.00 89 1016.7
20260906015718 25 62 3.2 4.8 0.00 0.00 0.00 88 1016.6
20260906015216 25 166 3.2 9.7 0.00 0.00 0.00 88 1016.6
20260906014711 25 355 6.4 8.0 0.00 0.00 0.00 88 1016.4
20260906014207 25 98 1.6 20.9 0.00 0.00 0.00 88 1016.4
20260906013703 25 116 3.2 8.0 0.00 0.00 0.00 87 1016.4
20260906013157 26 170 3.2 4.8 0.00 0.00 0.00 87 1016.4
20260906012657 26 60 3.2 9.7 0.00 0.00 0.00 87 1016.2
20260906012152 26 133 4.8 11.3 0.00 0.00 0.00 86 1016.3
20260906011648 26 40 6.4 12.9 0.00 0.00 0.00 85 1016.0
20260906011142 26 357 4.8 9.7 0.00 0.00 0.00 85 1016.3
20260906010638 26 169 4.8 8.0 0.00 0.00 0.00 85 1016.1
20260906010134 27 10 8.0 14.5 0.00 0.00 0.00 84 1016.2
20260906005633 27 34 8.0 11.3 0.00 0.00 0.00 83 1015.9
20260906005133 27 68 6.4 9.7 0.00 0.00 0.00 83 1015.9
20260906004632 27 2 4.8 27.4 0.00 0.00 0.00 83 1015.6
20260906004127 27 92 6.4 16.1 0.00 0.00 0.00 82 1015.7
20260906003622 27 49 6.4 12.9 0.00 0.00 0.00 82 1015.7
20260906003118 27 54 4.8 16.1 0.00 0.00 0.00 82 1015.6
20260906002613 28 67 8.0 14.5 0.00 0.00 0.00 82 1015.7
20260906002107 28 307 8.0 17.7 0.00 0.00 0.00 81 1015.7
20260906001602 28 245 1.6 9.7 0.00 0.00 0.00 81 1015.6
20260906001057 28 147 6.4 16.1 0.00 0.00 0.00 80 1015.6
20260906000553 29 359 6.4 12.9 0.00 0.00 0.00 79 1015.7
20260906000048 29 278 8.0 11.3 0.00 0.00 0.00 78 1015.2
20260905235547 29 347 12.9 17.7 0.00 0.00 0.00 78 1015.4
20260905235042 30 19 4.8 14.5 0.00 0.00 0.00 78 1015.2
20260905234537 30 122 6.4 16.1 0.00 0.00 0.00 77 1015.2
20260905234033 30 3 3.2 12.9 0.00 0.00 0.00 77 1015.4
20260905233533 30 329 6.4 11.3 0.00 0.00 0.00 77 1015.0
20260905233033 30 175 4.8 16.1 0.00 0.00 0.00 76 1015.3
20260905232528 31 326 6.4 20.9 0.00 0.00 0.00 74 1015.4
20260905232024 31 349 4.8 11.3 0.00 0.00 0.00 74 1015.2
20260905231519 31 58 6.4 14.5 0.00 0.00 0.00 75 1015.1
20260905231015 31 21 6.4 11.3 0.00 0.00 0.00 74 1015.1
20260905230514 31 43 3.2 8.0 0.00 0.00 0.00 74 1014.9
20260905230013 31 328 3.2 11.3 0.00 0.00 0.00 74 1015.1
20260905225507 31 21 8.0 11.3 0.00 0.00 0.00 72 1015.2
20260905225003 31 74 12.9 14.5 0.00 0.00 0.00 72 1015.1
20260905224458 31 11 4.8 12.9 0.00 0.00 0.00 72 1015.1
20260905223956 31 72 8.0 14.5 0.00 0.00 0.00 72 1015.1
20260905223455 31 219 6.4 12.9 0.00 0.00 0.00 72 1015.1
20260905222949 32 137 3.2 12.9 0.00 0.00 0.00 71 1015.1
20260905222444 32 343 4.8 4.8 0.00 0.00 0.00 71 1015.0
20260905221939 32 56 4.8 8.0 0.00 0.00 0.00 70 1014.9
20260905221436 32 228 4.8 16.1 0.00 0.00 0.00 69 1014.9
20260905220932 32 1 6.4 12.9 0.00 0.00 0.00 69 1014.9
20260905220428 32 327 6.4 12.9 0.00 0.00 0.00 69 1015.2
20260905215926 32 71 8.0 12.9 0.00 0.00 0.00 68 1015.0
20260905215422 33 84 6.4 9.7 0.00 0.00 0.00 69 1015.0
20260905214919 33 213 6.4 9.7 0.00 0.00 0.00 68 1015.0
20260905214414 32 314 3.2 9.7 0.00 0.00 0.00 70 1015.0
20260905213914 32 49 9.7 12.9 0.00 0.00 0.00 70 1015.0
20260905213410 33 94 6.4 12.9 0.00 0.00 0.00 69 1014.9
20260905212905 32 239 1.6 8.0 0.00 0.00 0.00 70 1015.0
20260905212401 32 196 0.0 11.3 0.00 0.00 0.00 71 1014.9
20260905211859 32 0 4.8 17.7 0.00 0.00 0.00 70 1014.8
20260905211355 32 284 6.4 8.0 0.00 0.00 0.00 69 1014.9
20260905210851 32 266 6.4 11.3 0.00 0.00 0.00 69 1015.0
20260905210351 33 163 1.6 4.8 0.00 0.00 0.00 68 1014.9
20260905205850 32 10 9.7 11.3 0.00 0.00 0.00 71 1014.9
20260905205345 33 50 4.8 11.3 0.00 0.00 0.00 68 1015.1
20260905204844 33 111 4.8 9.7 0.00 0.00 0.00 70 1015.1
20260905204341 33 313 4.8 8.0 0.00 0.00 0.00 69 1015.3
20260905203839 33 152 3.2 12.9 0.00 0.00 0.00 69 1015.1
20260905203335 33 182 1.6 8.0 0.00 0.00 0.00 68 1015.2
20260905202831 33 0 6.4 14.5 0.00 0.00 0.00 68 1015.1
20260905202325 33 73 1.6 11.3 0.00 0.00 0.00 69 1015.2
20260905201821 33 336 4.8 11.3 0.00 0.00 0.00 68 1015.2
20260905201316 33 248 8.0 9.7 0.00 0.00 0.00 67 1015.4
20260905200810 33 355 1.6 8.0 0.00 0.00 0.00 69 1015.2
20260905200307 34 328 3.2 9.7 0.00 0.00 0.00 69 1015.3
20260905195804 35 56 4.8 9.7 0.00 0.00 0.00 67 1015.2
20260905195259 33 310 1.6 8.0 0.00 0.00 0.00 68 1015.2
20260905194755 33 340 3.2 8.0 0.00 0.00 0.00 69 1015.2
20260905194254 33 21 4.8 12.9 0.00 0.00 0.00 69 1015.2
20260905193748 32 87 3.2 11.3 0.00 0.00 0.00 72 1015.4
20260905193243 32 269 9.7 14.5 0.00 0.00 0.00 72 1015.2
20260905192739 33 0 4.8 8.0 0.00 0.00 0.00 70 1015.4
20260905192235 35 7 6.4 14.5 0.00 0.00 0.00 68 1015.4
20260905191734 35 24 6.4 8.0 0.00 0.00 0.00 67 1015.4
20260905191232 35 317 3.2 4.8 0.00 0.00 0.00 66 1015.4
20260905190731 32 168 1.6 8.0 0.00 0.00 0.00 72 1015.4
20260905190230 33 287 3.2 8.0 0.00 0.00 0.00 71 1015.5
20260905185730 33 317 3.2 8.0 0.00 0.00 0.00 70 1015.5
20260905185225 35 93 6.4 9.7 0.00 0.00 0.00 67 1015.4
20260905184719 33 343 3.2 9.7 0.00 0.00 0.00 68 1015.6
20260905184218 33 130 3.2 9.7 0.00 0.00 0.00 70 1015.8
20260905183712 33 332 4.8 4.8 0.00 0.00 0.00 68 1015.7
20260905183207 34 81 4.8 11.3 0.00 0.00 0.00 69 1015.7
20260905182707 33 340 4.8 9.7 0.00 0.00 0.00 68 1015.6
20260905182207 34 228 4.8 11.3 0.00 0.00 0.00 68 1015.8
20260905181702 33 209 1.6 11.3 0.00 0.00 0.00 68 1015.8
20260905181201 34 67 4.8 11.3 0.00 0.00 0.00 66 1015.9
20260905180655 33 320 9.7 12.9 0.00 0.00 0.00 68 1015.9
20260905180151 33 254 4.8 11.3 0.00 0.00 0.00 67 1015.9
20260905175650 34 6 4.8 12.9 0.00 0.00 0.00 67 1015.8
20260905175146 34 56 3.2 12.9 0.00 0.00 0.00 67 1015.9
20260905174641 34 313 4.8 9.7 0.00 0.00 0.00 66 1016.0
20260905174136 34 45 3.2 9.7 0.00 0.00 0.00 67 1015.9
20260905173632 33 13 3.2 4.8 0.00 0.00 0.00 69 1016.0
20260905173128 33 143 1.6 8.0 0.00 0.00 0.00 68 1016.1
20260905172627 33 344 1.6 3.2 0.00 0.00 0.00 68 1016.1
20260905172122 34 43 4.8 8.0 0.00 0.00 0.00 67 1015.9
20260905171618 34 316 6.4 11.3 0.00 0.00 0.00 67 1016.1
20260905171114 33 116 4.8 8.0 0.00 0.00 0.00 67 1015.9
20260905170610 33 308 8.0 11.3 0.00 0.00 0.00 67 1016.1
20260905170105 33 141 4.8 9.7 0.00 0.00 0.00 68 1016.2
20260905165559 33 41 8.0 12.9 0.00 0.00 0.00 68 1016.1
20260905165055 33 86 6.4 8.0 0.00 0.00 0.00 68 1016.2
20260905164550 33 187 3.2 4.8 0.00 0.00 0.00 66 1016.2
20260905164044 33 12 6.4 9.7 0.00 0.00 0.00 67 1016.6
20260905163540 33 30 1.6 1.6 0.00 0.00 0.00 67 1016.4
20260905163036 33 141 1.6 3.2 0.00 0.00 0.00 67 1016.4
20260905162532 32 268 1.6 4.8 0.00 0.00 0.00 68 1016.4
20260905162027 33 57 8.0 11.3 0.00 0.00 0.00 67 1016.2
20260905161526 33 209 3.2 8.0 0.00 0.00 0.00 67 1016.5
20260905161024 33 87 3.2 4.8 0.00 0.00 0.00 65 1016.1
20260905160517 33 274 4.8 9.7 0.00 0.00 0.00 66 1016.3
20260905160018 33 85 4.8 11.3 0.00 0.00 0.00 65 1016.2
20260905155518 33 236 4.8 8.0 0.00 0.00 0.00 64 1016.1
20260905155016 33 290 4.8 8.0 0.00 0.00 0.00 65 1016.2
20260905154511 32 294 4.8 12.9 0.00 0.00 0.00 67 1016.1
20260905154007 33 304 4.8 9.7 0.00 0.00 0.00 66 1016.1
20260905153503 32 158 1.6 9.7 0.00 0.00 0.00 68 1016.0
20260905153003 32 31 6.4 8.0 0.00 0.00 0.00 68 1016.2
20260905152502 32 54 6.4 8.0 0.00 0.00 0.00 68 1016.2
20260905151957 33 245 4.8 8.0 0.00 0.00 0.00 66 1016.1
20260905151452 32 217 4.8 9.7 0.00 0.00 0.00 67 1016.0
20260905150947 32 208 1.6 8.0 0.00 0.00 0.00 70 1016.0
20260905150442 32 84 6.4 12.9 0.00 0.00 0.00 70 1016.0
20260905145938 32 196 4.8 4.8 0.00 0.00 0.00 70 1016.1
20260905145433 32 238 4.8 8.0 0.00 0.00 0.00 69 1015.9
20260905144933 32 242 4.8 11.3 0.00 0.00 0.00 70 1015.9
20260905144428 31 236 4.8 8.0 0.00 0.00 0.00 70 1016.1
20260905143926 31 242 4.8 8.0 0.00 0.00 0.00 69 1015.9
20260905143421 31 213 3.2 11.3 0.00 0.00 0.00 70 1015.9
20260905142915 31 209 1.6 3.2 0.00 0.00 0.00 70 1015.9
20260905142414 31 240 1.6 3.2 0.00 0.00 0.00 70 1015.9
20260905141910 32 274 6.4 9.7 0.00 0.00 0.00 71 1015.7
20260905141405 31 186 0.0 3.2 0.00 0.00 0.00 73 1015.7
20260905140901 30 257 3.2 8.0 0.00 0.00 0.00 74 1015.7
20260905140355 30 189 1.6 4.8 0.00 0.00 0.00 76 1016.0
20260905135854 29 268 4.8 9.7 0.00 0.00 0.00 77 1015.9
20260905135350 29 296 4.8 8.0 0.00 0.00 0.00 77 1015.8
20260905134846 28 205 1.6 4.8 0.00 0.00 0.00 79 1016.1
20260905134344 28 253 4.8 4.8 0.00 0.00 0.00 79 1015.9
20260905133838 28 269 3.2 8.0 0.00 0.00 0.00 80 1016.3
20260905133333 28 275 3.2 8.0 0.00 0.00 0.00 83 1016.0
20260905132832 27 205 1.6 3.2 0.00 0.00 0.00 84 1016.2
20260905132329 27 222 1.6 1.6 0.00 0.00 0.00 84 1015.8
20260905131823 27 202 1.6 3.2 0.00 0.00 0.00 84 1015.9
20260905131318 27 215 3.2 4.8 0.00 0.00 0.00 84 1016.0
20260905130813 27 206 0.0 1.6 0.00 0.00 0.00 86 1015.7
20260905130312 27 223 0.0 3.2 0.00 0.00 0.00 86 1015.6
20260905125808 26 217 0.0 3.2 0.00 0.00 0.00 87 1015.7
20260905125305 26 199 0.0 1.6 0.00 0.00 0.00 86 1015.7
20260905124759 26 221 1.6 3.2 0.00 0.00 0.00 86 1015.6
20260905124255 26 255 1.6 3.2 0.00 0.00 0.00 86 1015.7
20260905123750 26 211 3.2 3.2 0.00 0.00 0.00 86 1015.7
20260905123247 26 208 1.6 3.2 0.00 0.00 0.00 87 1015.5